TIANMU-1 18

Last updated on Sun Oct 06 2024 00:02:18 GMT+0000 (Coordinated Universal Time)

1 58703U 24004D 24279.52504324 .00018655 00000+0 93703-3 0 9991 2 58703 97.4621 98.8307 0007167 29.3622 330.8013 15.17306875 41482
UTC large
Height (km)
Speed (km/s)
/
Latitude / Longitude
Inclination (degrees)
Orbital Period (minutes)
Azimuth
Elevation
Range (km)
Doppler Factor

Next 0 passes for location: London (51.5072 / 0.1276)

Sorry there are no passes over London.